HYLAS 4 (43272 NORAD) Tracking and Keplerian Element Data

This shows tracking and keplerian element data for the satellite.

Feedback or suggestion? Click here.




ElementValue
Catalog43272
NameHYLAS 4
Epoch Orbit1279
Epoch Day269.82854144
Epoch Year2021
RAAN180.344
Inclination0.0314
Eccentricity0.0004465
Argument of Perigee2.4406
Mean Anonmoly87.8218
Mean Motion1.00269817
Decay Rate-2.35E-06
L11 43272U 18033B 21269.82854144 -.00000235 00000-0 00000-0 0 9990
L22 43272 0.0314 180.3440 0004465 2.4406 87.8218 1.00269817 12790

Live tracking and technical data element details for HYLAS 4 (NORAD 43272). HYLAS 4 can be tracked NOW for your location showing map with azimuth and elevation plus other details from your city location.

Track the satellite on the map from your city or location and see movement details for azimuth, elevation, latitude, longitude, range, height, and movement on the map or in text.







IsCatalogInMostPopularTable: catalog: 43272, numindb: 766
Update: records affected: 1



GetName: 43272 HYLAS 4

Hit Count: updated at: Tue, 28 Sep 2021 16:32:41 GMT